Arlington, TX

6:56 PM CST on February 07, 2016 (GMT -0600)
Arlington Municipal

Weather History for KGKY - December, 2013

Change the Weather History Date:

Wednesday, December 11, 2013

  Actual Average (KRBD) Record (KRBD)
Temperature  
Mean Temperature 34 °F -  
Max Temperature 46 °F 55 °F 80 °F (1996)
Min Temperature 23 °F 37 °F 21 °F (2000)
Degree Days  
Heating Degree Days 30    
Moisture  
Dew Point 25 °F    
Average Humidity 73    
Maximum Humidity 88    
Minimum Humidity 50    
Precipitation  
Precipitation 0.00 in - - ()
Sea Level Pressure  
Sea Level Pressure 30.45 in    
Wind  
Wind Speed 3 mph (NNW)    
Max Wind Speed 10 mph    
Max Gust Speed -    
Visibility 10 miles    
Events      
Averages and records for this station are not official NWS values.
T = Trace of Precipitation, MM = Missing Value Source: NWS Daily Summary

Daily Weather History Graph

Daily Weather History Graph

Search for Another Location

Airport or City:

Trip Planner

Search our weather history database for the weather conditions in past years. The results will help you decide how hot, cold, wet, or windy it might be!

Date:

Astronomy

Dec. 11, 2013 Rise Set
Actual Time 7:20 AM CST 5:23 PM CST
Civil Twilight 6:53 AM CST 5:50 PM CST
Nautical Twilight 6:22 AM CST 6:20 PM CST
Astronomical Twilight 5:52 AM CST 6:50 PM CST
Moon 1:44 PM CST (12/11) 1:57 AM CST (12/11)
Length of Visible Light 10h 56m
Length of Day
10h 02m
Waxing Gibbous, 72% of the Moon is Illuminated
Dec 11
Waxing Gibbous
Dec 17
Full
Dec 25
Last Quarter
Jan 1
New
Jan 7
First Quarter

Hourly Weather History & Observations

Time (CST) Temp. Windchill Dew Point Humidity Pressure Visibility Wind Dir Wind Speed Gust Speed Precip Events Conditions
12:53 AM 26.1 °F - 21.9 °F 84% 30.34 in 10.0 mi Calm Calm - N/A   Clear
1:53 AM 25.0 °F 20.7 °F 21.9 °F 88% 30.34 in 10.0 mi SSE 3.5 mph - N/A   Clear
2:53 AM 27.0 °F 19.5 °F 23.0 °F 85% 30.32 in 10.0 mi South 6.9 mph - N/A   Clear
3:53 AM 28.9 °F 23.9 °F 23.0 °F 78% 30.33 in 10.0 mi South 4.6 mph - N/A   Clear
4:53 AM 25.0 °F - 21.0 °F 85% 30.33 in 10.0 mi Calm Calm - N/A   Clear
5:53 AM 25.0 °F - 21.0 °F 85% 30.37 in 10.0 mi Calm Calm - N/A   Clear
6:53 AM 23.0 °F - 19.9 °F 88% 30.39 in 9.0 mi Calm Calm - N/A   Clear
7:53 AM 25.0 °F - 21.9 °F 88% 30.41 in 8.0 mi Calm Calm - N/A   Clear
8:53 AM 30.0 °F - 25.0 °F 82% 30.43 in 9.0 mi Calm Calm - N/A   Clear
9:53 AM 36.0 °F - 26.1 °F 67% 30.45 in 10.0 mi Calm Calm - N/A   Clear
10:53 AM 39.9 °F 35.8 °F 27.0 °F 60% 30.45 in 10.0 mi South 5.8 mph - N/A   Clear
11:53 AM 41.0 °F - 27.0 °F 57% 30.44 in 10.0 mi Calm Calm - N/A   Clear
12:53 PM 44.1 °F - 28.0 °F 53% 30.43 in 10.0 mi Calm Calm - N/A   Clear
1:53 PM 46.0 °F 42.5 °F 28.0 °F 50% 30.43 in 10.0 mi North 6.9 mph - N/A   Clear
2:53 PM 45.0 °F 40.1 °F 28.9 °F 53% 30.45 in 10.0 mi North 9.2 mph - N/A   Clear
3:53 PM 43.0 °F 37.2 °F 28.0 °F 56% 30.47 in 10.0 mi North 10.4 mph - N/A   Clear
4:53 PM 39.9 °F 33.4 °F 28.9 °F 65% 30.50 in 10.0 mi North 10.4 mph - N/A   Clear
5:53 PM 37.0 °F 31.0 °F 27.0 °F 67% 30.52 in 10.0 mi NNW 8.1 mph - N/A   Clear
6:53 PM 35.1 °F 30.1 °F 28.0 °F 76% 30.54 in 10.0 mi NNW 5.8 mph - N/A   Clear
7:53 PM 32.0 °F 27.5 °F 27.0 °F 82% 30.56 in 10.0 mi NW 4.6 mph - N/A   Clear
8:53 PM 34.0 °F 29.8 °F 27.0 °F 75% 30.57 in 10.0 mi NNW 4.6 mph - N/A   Clear
9:53 PM 32.0 °F 28.7 °F 27.0 °F 82% 30.60 in 10.0 mi NNW 3.5 mph - N/A   Clear
10:53 PM 35.1 °F 28.6 °F 26.1 °F 70% 30.59 in 10.0 mi North 8.1 mph - N/A   Clear
11:53 PM 34.0 °F 27.2 °F 25.0 °F 70% 30.60 in 10.0 mi North 8.1 mph - N/A   Clear